START_TIME,STEP,MOV.,M34,t_acc.,L5,t_acc.,L18,t_acc.,L14,t_acc.
1979-03-06 12:00:22.280 ,5,1,5.,12.0,3.,12.0,0.,12.0,0.,12.0
1979-03-06 12:00:34.290 ,5,1,53.,12.0,7.,12.0,0.,12.0,0.,12.0
1979-03-06 12:00:46.290 ,1,1,248.,12.0,32.,12.0,0.,12.0,0.,12.0
1979-03-06 12:00:58.290 ,1,1,188.,12.0,34.,12.0,0.,12.0,0.,12.0
1979-03-06 12:01:10.290 ,2,1,27.,12.0,3.,12.0,0.,12.0,0.,12.0
1979-03-06 12:01:22.290 ,2,1,196.,12.0,28.,12.0,0.,12.0,1.,12.0
1979-03-06 12:01:34.290 ,6,1,1056.,12.0,132.,12.0,0.,12.0,0.,12.0
1979-03-06 12:01:46.290 ,6,1,832.,12.0,64.,12.0,0.,12.0,0.,12.0
1979-03-06 12:01:58.290 ,5,1,7.,12.0,0.,12.0,0.,12.0,0.,12.0
1979-03-06 12:02:10.290 ,5,1,320.,12.0,52.,12.0,0.,12.0,0.,12.0
1979-03-06 12:02:22.290 ,1,1,2560.,12.0,752.,12.0,0.,12.0,0.,12.0
1979-03-06 12:02:34.290 ,1,1,736.,12.0,224.,12.0,0.,12.0,0.,12.0
1979-03-06 12:02:46.290 ,2,1,94.,12.0,18.,12.0,0.,12.0,0.,12.0
1979-03-06 12:02:58.290 ,2,1,280.,12.0,55.,12.0,0.,12.0,0.,12.0
1979-03-06 12:03:10.290 ,6,1,3648.,12.0,896.,12.0,0.,12.0,0.,12.0
1979-03-06 12:03:22.290 ,6,1,1504.,12.0,376.,12.0,0.,12.0,0.,12.0
1979-03-06 12:03:34.290 ,5,1,11.,12.0,5.,12.0,0.,12.0,0.,12.0
1979-03-06 12:03:46.290 ,5,1,172.,12.0,33.,12.0,0.,12.0,0.,12.0
1979-03-06 12:03:58.290 ,1,1,6272.,12.0,2304.,12.0,0.,12.0,0.,12.0
1979-03-06 12:04:10.290 ,1,1,1856.,12.0,672.,12.0,0.,12.0,0.,12.0
1979-03-06 12:04:22.290 ,2,1,264.,12.0,34.,12.0,0.,12.0,0.,12.0
1979-03-06 12:04:34.290 ,2,1,392.,12.0,144.,12.0,0.,12.0,0.,12.0
1979-03-06 12:04:46.290 ,6,1,10240.,12.0,5504.,12.0,0.,12.0,0.,12.0
1979-03-06 12:04:58.290 ,6,1,1440.,12.0,512.,12.0,0.,12.0,0.,12.0
1979-03-06 12:05:10.290 ,5,1,11.,12.0,3.,12.0,0.,12.0,1.,12.0
1979-03-06 12:05:22.290 ,5,1,70.,12.0,19.,12.0,0.,12.0,0.,12.0
1979-03-06 12:05:34.290 ,1,1,5760.,12.0,1152.,12.0,0.,12.0,0.,12.0
1979-03-06 12:05:46.290 ,1,1,5120.,12.0,1120.,12.0,0.,12.0,0.,12.0
1979-03-06 12:05:58.290 ,2,1,288.,12.0,50.,12.0,0.,12.0,0.,12.0
1979-03-06 12:06:10.290 ,2,1,640.,12.0,304.,12.0,0.,12.0,0.,12.0
1979-03-06 12:06:22.290 ,6,1,8704.,12.0,6400.,12.0,0.,12.0,0.,12.0
1979-03-06 12:06:34.290 ,6,1,2752.,12.0,1888.,12.0,0.,12.0,0.,12.0
1979-03-06 12:06:46.290 ,5,1,11.,12.0,9.,12.0,0.,12.0,0.,12.0
1979-03-06 12:06:58.290 ,5,1,504.,12.0,240.,12.0,0.,12.0,0.,12.0
1979-03-06 12:07:10.290 ,1,1,11264.,12.0,4992.,12.0,0.,12.0,0.,12.0
1979-03-06 12:07:22.290 ,1,1,3840.,12.0,1984.,12.0,0.,12.0,0.,12.0
1979-03-06 12:07:34.290 ,2,1,64.,12.0,20.,12.0,0.,12.0,0.,12.0
1979-03-06 12:07:46.290 ,2,1,440.,12.0,94.,12.0,0.,12.0,0.,12.0
1979-03-06 12:07:58.290 ,6,1,12288.,12.0,3648.,12.0,0.,12.0,1.,12.0
1979-03-06 12:08:10.290 ,6,1,2944.,12.0,672.,12.0,0.,12.0,0.,12.0
1979-03-06 12:08:22.290 ,5,1,,0,,0,,0,,0
1979-03-06 12:08:34.290 ,5,1,220.,12.0,132.,12.0,0.,12.0,0.,12.0
1979-03-06 12:08:46.290 ,1,1,8960.,12.0,7808.,12.0,0.,12.0,0.,12.0
1979-03-06 12:08:58.290 ,1,1,3008.,12.0,3008.,12.0,0.,12.0,0.,12.0
1979-03-06 12:09:10.290 ,2,1,31.,12.0,12.,12.0,0.,12.0,0.,12.0
1979-03-06 12:09:22.290 ,2,1,208.,12.0,110.,12.0,0.,12.0,0.,12.0
1979-03-06 12:09:34.290 ,6,1,10496.,12.0,3904.,12.0,0.,12.0,0.,12.0
1979-03-06 12:09:46.290 ,6,1,1312.,12.0,400.,12.0,0.,12.0,0.,12.0
1979-03-06 12:09:58.290 ,5,1,14.,12.0,7.,12.0,0.,12.0,0.,12.0
1979-03-06 12:10:10.290 ,5,1,164.,12.0,45.,12.0,0.,12.0,1.,12.0
1979-03-06 12:10:22.290 ,1,1,4224.,12.0,880.,12.0,0.,12.0,1.,12.0
1979-03-06 12:10:34.290 ,1,1,1568.,12.0,440.,12.0,0.,12.0,0.,12.0
1979-03-06 12:10:46.290 ,2,1,40.,12.0,23.,12.0,0.,12.0,0.,12.0
1979-03-06 12:10:58.290 ,2,1,704.,12.0,304.,12.0,0.,12.0,1.,12.0
1979-03-06 12:11:10.290 ,6,1,3136.,12.0,784.,12.0,0.,12.0,0.,12.0
1979-03-06 12:11:22.290 ,6,1,400.,12.0,136.,12.0,0.,12.0,0.,12.0
1979-03-06 12:11:34.290 ,5,1,4.,12.0,3.,12.0,0.,12.0,0.,12.0
1979-03-06 12:11:46.290 ,5,1,94.,12.0,42.,12.0,0.,12.0,0.,12.0
1979-03-06 12:11:58.290 ,1,1,1824.,12.0,408.,12.0,0.,12.0,0.,12.0
1979-03-06 12:12:10.290 ,1,1,800.,12.0,164.,12.0,0.,12.0,0.,12.0
1979-03-06 12:12:22.290 ,2,1,17.,12.0,11.,12.0,0.,12.0,1.,12.0
1979-03-06 12:12:34.290 ,2,1,114.,12.0,46.,12.0,0.,12.0,0.,12.0
1979-03-06 12:12:46.290 ,6,1,1824.,12.0,264.,12.0,0.,12.0,0.,12.0
1979-03-06 12:12:58.290 ,6,1,424.,12.0,84.,12.0,0.,12.0,0.,12.0
1979-03-06 12:13:10.290 ,5,1,13.,12.0,4.,12.0,0.,12.0,0.,12.0
1979-03-06 12:13:22.290 ,5,1,140.,12.0,44.,12.0,0.,12.0,0.,12.0
1979-03-06 12:13:34.290 ,1,1,608.,12.0,96.,12.0,0.,12.0,0.,12.0
1979-03-06 12:13:46.290 ,1,1,416.,12.0,60.,12.0,0.,12.0,0.,12.0
1979-03-06 12:13:58.290 ,2,1,70.,12.0,30.,12.0,0.,12.0,0.,12.0
1979-03-06 12:14:10.290 ,2,1,216.,12.0,42.,12.0,0.,12.0,0.,12.0
1979-03-06 12:14:22.290 ,6,1,320.,12.0,48.,12.0,0.,12.0,0.,12.0
1979-03-06 12:14:34.290 ,6,1,176.,12.0,33.,12.0,0.,12.0,0.,12.0
1979-03-06 12:14:46.290 ,5,1,12.,12.0,0.,12.0,0.,12.0,0.,12.0
1979-03-06 12:14:58.290 ,5,1,88.,12.0,16.,12.0,0.,12.0,0.,12.0
1979-03-06 12:15:10.290 ,1,1,208.,12.0,34.,12.0,0.,12.0,0.,12.0
1979-03-06 12:15:22.290 ,1,1,208.,12.0,33.,12.0,0.,12.0,0.,12.0
1979-03-06 12:15:34.290 ,2,1,92.,12.0,18.,12.0,0.,12.0,0.,12.0
1979-03-06 12:15:46.290 ,2,1,384.,12.0,23.,12.0,0.,12.0,0.,12.0
1979-03-06 12:15:58.290 ,6,1,204.,12.0,30.,12.0,0.,12.0,0.,12.0
1979-03-06 12:16:10.290 ,6,1,164.,12.0,41.,12.0,0.,12.0,0.,12.0
1979-03-06 12:16:22.290 ,5,1,21.,12.0,0.,12.0,0.,12.0,0.,12.0
1979-03-06 12:16:34.290 ,5,1,96.,12.0,21.,12.0,0.,12.0,1.,12.0
1979-03-06 12:16:46.290 ,1,1,116.,12.0,19.,12.0,0.,12.0,0.,12.0
1979-03-06 12:16:58.290 ,1,1,240.,12.0,31.,12.0,0.,12.0,0.,12.0
1979-03-06 12:17:10.290 ,2,1,96.,12.0,20.,12.0,0.,12.0,0.,12.0
1979-03-06 12:17:22.290 ,2,1,264.,12.0,33.,12.0,0.,12.0,0.,12.0
1979-03-06 12:17:34.290 ,6,1,216.,12.0,21.,12.0,0.,12.0,0.,12.0
1979-03-06 12:17:46.290 ,6,1,114.,12.0,19.,12.0,0.,12.0,0.,12.0
1979-03-06 12:17:58.290 ,5,1,9.,12.0,5.,12.0,0.,12.0,0.,12.0
1979-03-06 12:18:10.290 ,5,1,96.,12.0,16.,12.0,0.,12.0,0.,12.0
1979-03-06 12:18:22.290 ,1,1,164.,12.0,22.,12.0,0.,12.0,0.,12.0
1979-03-06 12:18:34.290 ,1,1,152.,12.0,20.,12.0,0.,12.0,0.,12.0
1979-03-06 12:18:46.290 ,2,1,76.,12.0,13.,12.0,0.,12.0,0.,12.0
1979-03-06 12:18:58.290 ,2,1,144.,12.0,23.,12.0,0.,12.0,0.,12.0
1979-03-06 12:19:10.290 ,6,1,140.,12.0,15.,12.0,0.,12.0,0.,12.0
1979-03-06 12:19:22.290 ,6,1,88.,12.0,11.,12.0,0.,12.0,0.,12.0
1979-03-06 12:19:34.290 ,5,1,7.,12.0,1.,12.0,0.,12.0,0.,12.0
1979-03-06 12:19:46.290 ,5,1,44.,12.0,14.,12.0,0.,12.0,1.,12.0
1979-03-06 12:19:58.290 ,1,1,110.,12.0,12.,12.0,0.,12.0,0.,12.0
1979-03-06 12:20:10.290 ,1,1,108.,12.0,14.,12.0,0.,12.0,0.,12.0
1979-03-06 12:20:22.290 ,2,1,132.,12.0,9.,12.0,0.,12.0,0.,12.0
1979-03-06 12:20:34.290 ,2,1,108.,12.0,22.,12.0,0.,12.0,0.,12.0
1979-03-06 12:20:46.290 ,6,1,84.,12.0,16.,12.0,0.,12.0,0.,12.0
1979-03-06 12:20:58.290 ,6,1,90.,12.0,16.,12.0,0.,12.0,0.,12.0
1979-03-06 12:21:10.290 ,5,1,11.,12.0,2.,12.0,0.,12.0,0.,12.0
1979-03-06 12:21:22.290 ,5,1,54.,12.0,15.,12.0,0.,12.0,0.,12.0
1979-03-06 12:21:34.290 ,1,1,118.,12.0,22.,12.0,0.,12.0,0.,12.0
1979-03-06 12:21:46.290 ,1,1,108.,12.0,20.,12.0,0.,12.0,0.,12.0
1979-03-06 12:21:58.290 ,2,1,212.,12.0,27.,12.0,0.,12.0,0.,12.0
1979-03-06 12:22:10.290 ,2,1,140.,12.0,20.,12.0,0.,12.0,0.,12.0
1979-03-06 12:22:22.290 ,6,1,126.,12.0,24.,12.0,0.,12.0,0.,12.0
1979-03-06 12:22:34.290 ,6,1,72.,12.0,12.,12.0,0.,12.0,1.,12.0
1979-03-06 12:22:46.290 ,5,1,8.,12.0,3.,12.0,0.,12.0,1.,12.0
1979-03-06 12:22:58.290 ,5,1,63.,12.0,7.,12.0,0.,12.0,1.,12.0
1979-03-06 12:23:10.290 ,1,1,148.,12.0,21.,12.0,0.,12.0,1.,12.0
1979-03-06 12:23:22.290 ,1,1,272.,12.0,41.,12.0,0.,12.0,0.,12.0
1979-03-06 12:23:34.290 ,2,1,592.,12.0,208.,12.0,0.,12.0,0.,12.0
1979-03-06 12:23:46.290 ,2,1,464.,12.0,96.,12.0,0.,12.0,0.,12.0
1979-03-06 12:23:58.290 ,6,1,208.,12.0,38.,12.0,0.,12.0,0.,12.0
1979-03-06 12:24:10.290 ,6,1,176.,12.0,27.,12.0,0.,12.0,0.,12.0
1979-03-06 12:24:22.290 ,5,1,7.,12.0,0.,12.0,0.,12.0,0.,12.0
1979-03-06 12:24:34.290 ,5,1,82.,12.0,28.,12.0,0.,12.0,0.,12.0
1979-03-06 12:24:46.290 ,1,1,188.,12.0,40.,12.0,0.,12.0,0.,12.0
1979-03-06 12:24:58.290 ,1,1,256.,12.0,51.,12.0,0.,12.0,0.,12.0
1979-03-06 12:25:10.290 ,2,1,320.,12.0,80.,12.0,0.,12.0,0.,12.0
1979-03-06 12:25:22.290 ,2,1,336.,12.0,76.,12.0,0.,12.0,0.,12.0
1979-03-06 12:25:34.290 ,6,1,156.,12.0,37.,12.0,0.,12.0,0.,12.0
1979-03-06 12:25:46.290 ,6,1,106.,12.0,23.,12.0,0.,12.0,0.,12.0
1979-03-06 12:25:58.290 ,5,1,5.,12.0,7.,12.0,0.,12.0,0.,12.0
1979-03-06 12:26:10.290 ,5,1,72.,12.0,12.,12.0,0.,12.0,0.,12.0
1979-03-06 12:26:22.290 ,1,1,110.,12.0,18.,12.0,0.,12.0,0.,12.0
1979-03-06 12:26:34.290 ,1,1,180.,12.0,38.,12.0,0.,12.0,0.,12.0
1979-03-06 12:26:46.290 ,2,1,204.,12.0,44.,12.0,0.,12.0,0.,12.0
1979-03-06 12:26:58.290 ,2,1,228.,12.0,28.,12.0,0.,12.0,0.,12.0
1979-03-06 12:27:10.290 ,6,1,110.,12.0,15.,12.0,0.,12.0,0.,12.0
1979-03-06 12:27:22.290 ,6,1,61.,12.0,10.,12.0,0.,12.0,1.,12.0
1979-03-06 12:27:34.290 ,5,1,9.,12.0,1.,12.0,0.,12.0,0.,12.0
1979-03-06 12:27:46.290 ,5,1,41.,12.0,4.,12.0,0.,12.0,0.,12.0
1979-03-06 12:27:58.290 ,1,1,104.,12.0,14.,12.0,0.,12.0,0.,12.0
1979-03-06 12:28:10.290 ,1,1,118.,12.0,19.,12.0,0.,12.0,0.,12.0
1979-03-06 12:28:22.290 ,2,1,304.,12.0,23.,12.0,0.,12.0,0.,12.0
1979-03-06 12:28:34.290 ,2,1,180.,12.0,20.,12.0,0.,12.0,0.,12.0
1979-03-06 12:28:46.290 ,6,1,88.,12.0,16.,12.0,0.,12.0,0.,12.0
1979-03-06 12:28:58.290 ,6,1,82.,12.0,17.,12.0,0.,12.0,1.,12.0
1979-03-06 12:29:10.290 ,5,1,16.,12.0,2.,12.0,0.,12.0,0.,12.0
1979-03-06 12:29:22.290 ,5,1,74.,12.0,16.,12.0,0.,12.0,0.,12.0
1979-03-06 12:29:34.290 ,1,1,52.,12.0,13.,12.0,0.,12.0,0.,12.0
1979-03-06 12:29:46.290 ,1,1,90.,12.0,16.,12.0,0.,12.0,0.,12.0
1979-03-06 12:29:58.290 ,2,1,208.,12.0,22.,12.0,0.,12.0,2.,12.0
1979-03-06 12:30:10.290 ,2,1,98.,12.0,17.,12.0,0.,12.0,0.,12.0
1979-03-06 12:30:22.290 ,6,1,55.,12.0,12.,12.0,0.,12.0,0.,12.0
1979-03-06 12:30:34.290 ,6,1,78.,12.0,21.,12.0,0.,12.0,0.,12.0
1979-03-06 12:30:46.290 ,5,1,11.,12.0,2.,12.0,0.,12.0,0.,12.0
1979-03-06 12:30:58.290 ,5,1,88.,12.0,14.,12.0,0.,12.0,0.,12.0
1979-03-06 12:31:10.290 ,1,1,55.,12.0,13.,12.0,0.,12.0,0.,12.0
1979-03-06 12:31:22.290 ,1,1,74.,12.0,6.,12.0,0.,12.0,1.,12.0
1979-03-06 12:31:34.290 ,2,1,80.,12.0,15.,12.0,0.,12.0,0.,12.0
1979-03-06 12:31:46.290 ,2,1,72.,12.0,9.,12.0,0.,12.0,0.,12.0
1979-03-06 12:31:58.290 ,6,1,60.,12.0,8.,12.0,0.,12.0,0.,12.0
1979-03-06 12:32:10.290 ,6,1,82.,12.0,14.,12.0,0.,12.0,0.,12.0
1979-03-06 12:32:22.290 ,5,1,15.,12.0,3.,12.0,0.,12.0,0.,12.0
1979-03-06 12:32:34.290 ,5,1,72.,12.0,24.,12.0,0.,12.0,0.,12.0
1979-03-06 12:32:46.290 ,1,1,66.,12.0,12.,12.0,0.,12.0,0.,12.0
1979-03-06 12:32:58.290 ,1,1,60.,12.0,16.,12.0,0.,12.0,0.,12.0
1979-03-06 12:33:10.290 ,2,1,54.,12.0,4.,12.0,0.,12.0,0.,12.0
1979-03-06 12:33:22.290 ,2,1,50.,12.0,4.,12.0,0.,12.0,0.,12.0
1979-03-06 12:33:34.290 ,6,1,64.,12.0,12.,12.0,0.,12.0,0.,12.0
1979-03-06 12:33:46.290 ,6,1,96.,12.0,17.,12.0,0.,12.0,0.,12.0
1979-03-06 12:33:58.290 ,5,1,25.,12.0,3.,12.0,0.,12.0,0.,12.0
1979-03-06 12:34:10.290 ,5,1,98.,12.0,10.,12.0,0.,12.0,0.,12.0
1979-03-06 12:34:22.290 ,1,1,64.,12.0,16.,12.0,0.,12.0,0.,12.0
1979-03-06 12:34:34.290 ,1,1,63.,12.0,13.,12.0,0.,12.0,0.,12.0
1979-03-06 12:34:46.290 ,2,1,64.,12.0,7.,12.0,0.,12.0,0.,12.0
1979-03-06 12:34:58.290 ,2,1,45.,12.0,6.,12.0,0.,12.0,0.,12.0
1979-03-06 12:35:10.290 ,6,1,56.,12.0,12.,12.0,0.,12.0,1.,12.0
1979-03-06 12:35:22.290 ,6,1,80.,12.0,14.,12.0,0.,12.0,0.,12.0
1979-03-06 12:35:34.290 ,5,1,11.,12.0,2.,12.0,0.,12.0,0.,12.0
1979-03-06 12:35:46.290 ,5,1,66.,12.0,16.,12.0,0.,12.0,0.,12.0
1979-03-06 12:35:58.290 ,1,1,70.,12.0,13.,12.0,0.,12.0,0.,12.0
1979-03-06 12:36:10.290 ,1,1,48.,12.0,11.,12.0,0.,12.0,0.,12.0
1979-03-06 12:36:22.290 ,2,1,136.,12.0,17.,12.0,0.,12.0,0.,12.0
1979-03-06 12:36:34.290 ,2,1,66.,12.0,6.,12.0,0.,12.0,0.,12.0
1979-03-06 12:36:46.290 ,6,1,76.,12.0,11.,12.0,0.,12.0,0.,12.0
1979-03-06 12:36:58.290 ,6,1,80.,12.0,19.,12.0,0.,12.0,0.,12.0
1979-03-06 12:37:10.290 ,5,1,13.,12.0,5.,12.0,0.,12.0,0.,12.0
1979-03-06 12:37:22.290 ,5,1,88.,12.0,18.,12.0,0.,12.0,0.,12.0
1979-03-06 12:37:34.290 ,1,1,64.,12.0,22.,12.0,0.,12.0,1.,12.0
1979-03-06 12:37:46.290 ,1,1,76.,12.0,17.,12.0,0.,12.0,0.,12.0
1979-03-06 12:37:58.290 ,2,1,70.,12.0,14.,12.0,0.,12.0,0.,12.0
1979-03-06 12:38:10.290 ,2,1,74.,12.0,19.,12.0,0.,12.0,0.,12.0
1979-03-06 12:38:22.290 ,0,0,90.,12.0,23.,12.0,0.,12.0,0.,12.0
1979-03-06 12:38:34.290 ,0,0,96.,12.0,22.,12.0,0.,12.0,0.,12.0
1979-03-06 12:38:46.290 ,6,1,92.,12.0,16.,12.0,0.,12.0,0.,12.0
1979-03-06 12:38:58.290 ,6,1,80.,12.0,12.,12.0,0.,12.0,0.,12.0
1979-03-06 12:39:10.290 ,7,1,102.,12.0,19.,12.0,0.,12.0,0.,12.0
1979-03-06 12:39:22.290 ,7,1,29.,12.0,3.,12.0,0.,12.0,0.,12.0
1979-03-06 12:39:34.290 ,7,1,0.,12.0,0.,12.0,0.,12.0,1.,12.0
1979-03-06 12:39:46.290 ,7,1,0.,12.0,0.,12.0,0.,12.0,2.,12.0
1979-03-06 12:39:58.290 ,6,1,0.,12.0,0.,12.0,0.,12.0,0.,12.0
1979-03-06 12:40:10.290 ,6,1,55.,12.0,7.,12.0,0.,12.0,0.,12.0
1979-03-06 12:40:22.290 ,5,1,80.,12.0,16.,12.0,0.,12.0,0.,12.0
1979-03-06 12:40:34.290 ,5,1,112.,12.0,30.,12.0,0.,12.0,0.,12.0
1979-03-06 12:40:46.290 ,4,1,156.,12.0,24.,12.0,0.,12.0,0.,12.0
1979-03-06 12:40:58.290 ,4,1,168.,12.0,39.,12.0,0.,12.0,0.,12.0
1979-03-06 12:41:10.290 ,3,1,208.,12.0,29.,12.0,0.,12.0,0.,12.0
1979-03-06 12:41:22.290 ,3,1,172.,12.0,26.,12.0,0.,12.0,0.,12.0
1979-03-06 12:41:34.290 ,2,1,152.,12.0,24.,12.0,0.,12.0,0.,12.0
1979-03-06 12:41:46.290 ,2,1,90.,12.0,7.,12.0,0.,12.0,0.,12.0
1979-03-06 12:41:58.290 ,1,1,64.,12.0,12.,12.0,0.,12.0,0.,12.0
1979-03-06 12:42:10.290 ,1,1,53.,12.0,13.,12.0,0.,12.0,0.,12.0
1979-03-06 12:42:22.290 ,0,1,61.,12.0,9.,12.0,0.,12.0,0.,12.0
1979-03-06 12:42:34.290 ,0,1,68.,12.0,13.,12.0,0.,12.0,0.,12.0
1979-03-06 12:42:46.290 ,0,1,40.,12.0,17.,12.0,0.,12.0,0.,12.0
1979-03-06 12:42:58.290 ,0,1,54.,12.0,10.,12.0,0.,12.0,0.,12.0
1979-03-06 12:43:10.290 ,1,1,57.,12.0,27.,12.0,0.,12.0,0.,12.0
1979-03-06 12:43:22.290 ,1,1,94.,12.0,28.,12.0,0.,12.0,0.,12.0
1979-03-06 12:43:34.290 ,2,1,122.,12.0,39.,12.0,0.,12.0,1.,12.0
1979-03-06 12:43:46.290 ,2,1,106.,12.0,28.,12.0,0.,12.0,0.,12.0
1979-03-06 12:43:58.290 ,3,1,106.,12.0,29.,12.0,0.,12.0,0.,12.0
1979-03-06 12:44:10.290 ,3,1,118.,12.0,25.,12.0,0.,12.0,0.,12.0
1979-03-06 12:44:22.290 ,4,1,140.,12.0,22.,12.0,0.,12.0,0.,12.0
1979-03-06 12:44:34.290 ,4,1,200.,12.0,39.,12.0,0.,12.0,0.,12.0
1979-03-06 12:44:46.290 ,5,1,232.,12.0,48.,12.0,0.,12.0,0.,12.0
1979-03-06 12:44:58.290 ,5,1,148.,12.0,44.,12.0,0.,12.0,0.,12.0
1979-03-06 12:45:10.290 ,6,1,118.,12.0,37.,12.0,0.,12.0,0.,12.0
1979-03-06 12:45:22.290 ,6,1,78.,12.0,42.,12.0,0.,12.0,0.,12.0
1979-03-06 12:45:34.290 ,7,1,62.,12.0,39.,12.0,0.,12.0,0.,12.0
1979-03-06 12:45:46.290 ,7,1,18.,12.0,25.,12.0,0.,12.0,0.,12.0
1979-03-06 12:45:58.290 ,7,1,0.,12.0,0.,12.0,0.,12.0,0.,12.0
1979-03-06 12:46:10.290 ,7,1,0.,12.0,0.,12.0,0.,12.0,0.,12.0
1979-03-06 12:46:22.290 ,6,1,0.,12.0,0.,12.0,0.,12.0,1.,12.0
1979-03-06 12:46:34.290 ,6,1,172.,12.0,400.,12.0,0.,12.0,0.,12.0
1979-03-06 12:46:46.290 ,5,1,512.,12.0,608.,12.0,0.,12.0,0.,12.0
1979-03-06 12:46:58.290 ,5,1,656.,12.0,640.,12.0,0.,12.0,0.,12.0
1979-03-06 12:47:10.290 ,4,1,592.,12.0,784.,12.0,0.,12.0,0.,12.0
1979-03-06 12:47:22.290 ,4,1,912.,12.0,1184.,12.0,0.,12.0,0.,12.0
1979-03-06 12:47:34.290 ,3,1,1120.,12.0,1856.,12.0,0.,12.0,1.,12.0
1979-03-06 12:47:46.290 ,3,1,720.,12.0,1856.,12.0,0.,12.0,0.,12.0
1979-03-06 12:47:58.290 ,2,1,488.,12.0,1824.,12.0,0.,12.0,0.,12.0
1979-03-06 12:48:10.290 ,2,1,236.,12.0,1248.,12.0,0.,12.0,0.,12.0
1979-03-06 12:48:22.290 ,1,1,188.,12.0,992.,12.0,0.,12.0,0.,12.0
1979-03-06 12:48:34.290 ,1,1,384.,12.0,1120.,12.0,0.,12.0,0.,12.0
1979-03-06 12:48:46.290 ,0,1,424.,12.0,1088.,12.0,0.,12.0,0.,12.0
1979-03-06 12:48:58.290 ,0,1,704.,12.0,960.,12.0,0.,12.0,0.,12.0
1979-03-06 12:49:10.290 ,0,1,784.,12.0,1792.,12.0,0.,12.0,0.,12.0
1979-03-06 12:49:22.290 ,0,1,544.,12.0,1344.,12.0,0.,12.0,0.,12.0
1979-03-06 12:49:34.290 ,1,1,432.,12.0,624.,12.0,0.,12.0,0.,12.0
1979-03-06 12:49:46.290 ,1,1,360.,12.0,592.,12.0,0.,12.0,0.,12.0
1979-03-06 12:49:58.290 ,2,1,304.,12.0,440.,12.0,0.,12.0,0.,12.0
1979-03-06 12:50:10.290 ,2,1,368.,12.0,408.,12.0,0.,12.0,0.,12.0
1979-03-06 12:50:22.290 ,3,1,368.,12.0,376.,12.0,0.,12.0,0.,12.0
1979-03-06 12:50:34.290 ,3,1,408.,12.0,400.,12.0,0.,12.0,0.,12.0
1979-03-06 12:50:46.290 ,4,1,392.,12.0,320.,12.0,0.,12.0,0.,12.0
1979-03-06 12:50:58.290 ,4,1,544.,12.0,432.,12.0,0.,12.0,0.,12.0
1979-03-06 12:51:10.290 ,5,1,560.,12.0,432.,12.0,0.,12.0,0.,12.0
1979-03-06 12:51:22.290 ,5,1,408.,12.0,352.,12.0,0.,12.0,0.,12.0
1979-03-06 12:51:34.290 ,6,1,320.,12.0,296.,12.0,0.,12.0,0.,12.0
1979-03-06 12:51:46.290 ,6,1,264.,12.0,196.,12.0,0.,12.0,0.,12.0
1979-03-06 12:51:58.290 ,7,1,280.,12.0,148.,12.0,0.,12.0,0.,12.0
1979-03-06 12:52:10.290 ,7,1,84.,12.0,42.,12.0,0.,12.0,0.,12.0
1979-03-06 12:52:22.290 ,7,1,0.,12.0,0.,12.0,0.,12.0,0.,12.0
1979-03-06 12:52:34.290 ,7,1,0.,12.0,0.,12.0,0.,12.0,0.,12.0
1979-03-06 12:52:46.290 ,6,1,0.,12.0,0.,12.0,0.,12.0,0.,12.0
1979-03-06 12:52:58.290 ,6,1,160.,12.0,102.,12.0,0.,12.0,0.,12.0
1979-03-06 12:53:10.290 ,5,1,252.,12.0,176.,12.0,0.,12.0,0.,12.0
1979-03-06 12:53:22.290 ,5,1,408.,12.0,244.,12.0,0.,12.0,1.,12.0
1979-03-06 12:53:34.290 ,4,1,512.,12.0,368.,12.0,0.,12.0,1.,12.0
1979-03-06 12:53:46.290 ,4,1,864.,12.0,456.,12.0,0.,12.0,0.,12.0
1979-03-06 12:53:58.290 ,3,1,992.,12.0,400.,12.0,0.,12.0,0.,12.0
1979-03-06 12:54:10.290 ,3,1,928.,12.0,464.,12.0,0.,12.0,0.,12.0
1979-03-06 12:54:22.290 ,2,1,1008.,12.0,560.,12.0,0.,12.0,0.,12.0
1979-03-06 12:54:34.290 ,2,1,656.,12.0,504.,12.0,0.,12.0,0.,12.0
1979-03-06 12:54:46.290 ,1,1,416.,12.0,512.,12.0,0.,12.0,0.,12.0
1979-03-06 12:54:58.290 ,1,1,456.,12.0,464.,12.0,0.,12.0,0.,12.0
1979-03-06 12:55:10.290 ,0,1,336.,12.0,392.,12.0,0.,12.0,0.,12.0
1979-03-06 12:55:22.290 ,0,1,656.,12.0,472.,12.0,0.,12.0,0.,12.0
1979-03-06 12:55:34.290 ,0,1,1504.,12.0,960.,12.0,0.,12.0,0.,12.0
1979-03-06 12:55:46.290 ,0,1,1440.,12.0,1184.,12.0,0.,12.0,0.,12.0
1979-03-06 12:55:58.290 ,1,1,816.,12.0,800.,12.0,0.,12.0,0.,12.0
1979-03-06 12:56:10.290 ,1,1,544.,12.0,960.,12.0,0.,12.0,0.,12.0
1979-03-06 12:56:22.290 ,2,1,488.,12.0,944.,12.0,0.,12.0,0.,12.0
1979-03-06 12:56:34.290 ,2,1,288.,12.0,592.,12.0,0.,12.0,0.,12.0
1979-03-06 12:56:46.290 ,3,1,172.,12.0,432.,12.0,0.,12.0,0.,12.0
1979-03-06 12:56:58.290 ,3,1,328.,12.0,656.,12.0,0.,12.0,0.,12.0
1979-03-06 12:57:10.290 ,4,1,416.,12.0,544.,12.0,0.,12.0,0.,12.0
1979-03-06 12:57:22.290 ,4,1,544.,12.0,488.,12.0,0.,12.0,0.,12.0
1979-03-06 12:57:34.290 ,5,1,672.,12.0,504.,12.0,0.,12.0,0.,12.0
1979-03-06 12:57:46.290 ,5,1,360.,12.0,264.,12.0,0.,12.0,0.,12.0
1979-03-06 12:57:58.290 ,6,1,180.,12.0,192.,12.0,0.,12.0,0.,12.0
1979-03-06 12:58:10.290 ,6,1,116.,12.0,84.,12.0,0.,12.0,0.,12.0
1979-03-06 12:58:22.290 ,7,1,156.,12.0,112.,12.0,0.,12.0,0.,12.0
1979-03-06 12:58:34.290 ,7,1,60.,12.0,20.,12.0,0.,12.0,0.,12.0
1979-03-06 12:58:46.290 ,0,0,0.,12.0,0.,12.0,0.,12.0,0.,12.0
1979-03-06 12:58:58.290 ,0,0,0.,12.0,0.,12.0,0.,12.0,1.,12.0
1979-03-06 13:08:44.490 ,0,0,,0,,0,,0,,0
1979-03-06 13:08:56.490 ,0,0,,0,,0,,0,,0
1979-03-06 13:08:46.290 ,0,0,15.,12.0,3.,12.0,0.,12.0,0.,12.0
1979-03-06 13:08:58.290 ,0,0,8.,12.0,0.,12.0,0.,12.0,0.,12.0
1979-03-06 13:09:10.290 ,2,1,0.,12.0,1.,12.0,0.,12.0,0.,12.0
1979-03-06 13:09:22.290 ,2,1,7.,12.0,1.,12.0,0.,12.0,0.,12.0
1979-03-06 13:09:34.290 ,3,1,9.,12.0,3.,12.0,0.,12.0,1.,12.0
1979-03-06 13:09:46.290 ,3,1,33.,12.0,3.,12.0,0.,12.0,0.,12.0
1979-03-06 13:09:58.290 ,0,0,42.,12.0,6.,12.0,0.,12.0,0.,12.0
1979-03-06 13:10:10.290 ,0,0,47.,12.0,7.,12.0,0.,12.0,0.,12.0
1979-03-06 13:10:22.290 ,5,1,57.,12.0,13.,12.0,0.,12.0,0.,12.0
1979-03-06 13:10:34.290 ,5,1,32.,12.0,3.,12.0,0.,12.0,0.,12.0
1979-03-06 13:10:46.290 ,6,1,25.,12.0,1.,12.0,0.,12.0,0.,12.0
1979-03-06 13:10:58.290 ,6,1,9.,12.0,3.,12.0,0.,12.0,0.,12.0
1979-03-06 13:11:10.290 ,7,1,15.,12.0,2.,12.0,0.,12.0,0.,12.0
1979-03-06 13:11:22.290 ,7,1,4.,12.0,0.,12.0,0.,12.0,1.,12.0
1979-03-06 13:11:34.290 ,7,1,0.,12.0,0.,12.0,0.,12.0,0.,12.0
1979-03-06 13:11:46.290 ,7,1,0.,12.0,0.,12.0,0.,12.0,0.,12.0
1979-03-06 13:11:58.290 ,7,0,0.,12.0,0.,12.0,0.,12.0,0.,12.0
1979-03-06 13:12:10.290 ,7,0,,0,,0,,0,,0
1979-03-06 13:12:22.290 ,5,1,13.,12.0,1.,12.0,0.,12.0,1.,12.0
1979-03-06 13:12:34.290 ,5,1,27.,12.0,6.,12.0,0.,12.0,0.,12.0
1979-03-06 13:12:46.290 ,4,1,28.,12.0,3.,12.0,0.,12.0,0.,12.0
1979-03-06 13:12:58.290 ,4,1,38.,12.0,7.,12.0,0.,12.0,0.,12.0
1979-03-06 13:13:10.290 ,3,1,40.,12.0,7.,12.0,0.,12.0,0.,12.0
1979-03-06 13:13:22.290 ,3,1,38.,12.0,6.,12.0,0.,12.0,0.,12.0
1979-03-06 13:13:34.290 ,2,1,51.,12.0,16.,12.0,0.,12.0,0.,12.0
1979-03-06 13:13:46.290 ,2,1,44.,12.0,4.,12.0,0.,12.0,0.,12.0
1979-03-06 13:13:58.290 ,1,1,55.,12.0,11.,12.0,0.,12.0,0.,12.0
1979-03-06 13:14:10.290 ,1,1,21.,12.0,2.,12.0,0.,12.0,0.,12.0
1979-03-06 13:14:22.290 ,0,1,31.,12.0,4.,12.0,0.,12.0,0.,12.0
1979-03-06 13:14:34.290 ,0,1,19.,12.0,3.,12.0,0.,12.0,1.,12.0
1979-03-06 13:14:46.290 ,0,1,7.,12.0,0.,12.0,0.,12.0,0.,12.0
1979-03-06 13:14:58.290 ,0,1,7.,12.0,5.,12.0,0.,12.0,0.,12.0
1979-03-06 13:15:10.290 ,1,1,12.,12.0,5.,12.0,0.,12.0,0.,12.0
1979-03-06 13:15:22.290 ,1,1,25.,12.0,6.,12.0,0.,12.0,0.,12.0
1979-03-06 13:15:34.290 ,2,1,22.,12.0,2.,12.0,0.,12.0,0.,12.0
1979-03-06 13:15:46.290 ,2,1,35.,12.0,10.,12.0,0.,12.0,0.,12.0
1979-03-06 13:15:58.290 ,3,1,49.,12.0,7.,12.0,0.,12.0,0.,12.0
1979-03-06 13:16:10.290 ,3,1,51.,12.0,8.,12.0,0.,12.0,0.,12.0
1979-03-06 13:16:22.290 ,4,1,64.,12.0,3.,12.0,0.,12.0,0.,12.0
1979-03-06 13:16:34.290 ,4,1,63.,12.0,8.,12.0,0.,12.0,1.,12.0
1979-03-06 13:16:46.290 ,5,1,72.,12.0,3.,12.0,0.,12.0,0.,12.0
1979-03-06 13:16:58.290 ,5,1,55.,12.0,10.,12.0,0.,12.0,0.,12.0
1979-03-06 13:17:10.290 ,6,1,60.,12.0,6.,12.0,0.,12.0,0.,12.0
1979-03-06 13:17:22.290 ,6,1,37.,12.0,13.,12.0,0.,12.0,0.,12.0
1979-03-06 13:17:34.290 ,7,1,30.,12.0,3.,12.0,0.,12.0,0.,12.0
1979-03-06 13:17:46.290 ,7,1,18.,12.0,4.,12.0,0.,12.0,0.,12.0
1979-03-06 13:17:58.290 ,7,1,0.,12.0,0.,12.0,0.,12.0,0.,12.0
1979-03-06 13:18:10.290 ,7,1,0.,12.0,0.,12.0,0.,12.0,0.,12.0
1979-03-06 13:18:22.290 ,6,1,0.,12.0,0.,12.0,0.,12.0,0.,12.0
1979-03-06 13:18:34.290 ,6,1,34.,12.0,2.,12.0,0.,12.0,0.,12.0
1979-03-06 13:18:46.290 ,5,1,45.,12.0,7.,12.0,0.,12.0,0.,12.0
1979-03-06 13:18:58.290 ,5,1,50.,12.0,12.,12.0,0.,12.0,0.,12.0
1979-03-06 13:19:10.290 ,4,1,64.,12.0,9.,12.0,0.,12.0,1.,12.0
1979-03-06 13:19:22.290 ,4,1,72.,12.0,8.,12.0,0.,12.0,0.,12.0
1979-03-06 13:19:34.290 ,3,1,62.,12.0,14.,12.0,0.,12.0,0.,12.0
1979-03-06 13:19:46.290 ,3,1,41.,12.0,8.,12.0,0.,12.0,1.,12.0
1979-03-06 13:19:58.290 ,2,1,35.,12.0,6.,12.0,0.,12.0,1.,12.0
1979-03-06 13:20:10.290 ,2,1,29.,12.0,4.,12.0,0.,12.0,0.,12.0
1979-03-06 13:20:22.290 ,1,1,22.,12.0,6.,12.0,0.,12.0,0.,12.0
1979-03-06 13:20:34.290 ,1,1,18.,12.0,2.,12.0,0.,12.0,0.,12.0
1979-03-06 13:20:46.290 ,0,1,15.,12.0,5.,12.0,0.,12.0,0.,12.0
1979-03-06 13:20:58.290 ,0,1,14.,12.0,5.,12.0,0.,12.0,0.,12.0
1979-03-06 13:21:10.290 ,0,1,20.,12.0,2.,12.0,0.,12.0,0.,12.0
1979-03-06 13:21:22.290 ,0,1,22.,12.0,0.,12.0,0.,12.0,0.,12.0
1979-03-06 13:21:34.290 ,1,1,13.,12.0,0.,12.0,0.,12.0,0.,12.0
1979-03-06 13:21:46.290 ,1,1,14.,12.0,1.,12.0,0.,12.0,0.,12.0
1979-03-06 13:21:58.290 ,2,1,12.,12.0,2.,12.0,0.,12.0,0.,12.0
1979-03-06 13:22:10.290 ,2,1,26.,12.0,1.,12.0,0.,12.0,0.,12.0
1979-03-06 13:22:22.290 ,3,1,25.,12.0,3.,12.0,0.,12.0,0.,12.0
1979-03-06 13:22:34.290 ,3,1,34.,12.0,9.,12.0,0.,12.0,0.,12.0
1979-03-06 13:22:46.290 ,4,1,31.,12.0,9.,12.0,0.,12.0,0.,12.0
1979-03-06 13:22:58.290 ,4,1,33.,12.0,5.,12.0,0.,12.0,1.,12.0
1979-03-06 13:23:10.290 ,5,1,25.,12.0,10.,12.0,0.,12.0,0.,12.0
1979-03-06 13:23:22.290 ,5,1,40.,12.0,4.,12.0,0.,12.0,0.,12.0
1979-03-06 13:23:34.290 ,6,1,44.,12.0,1.,12.0,0.,12.0,1.,12.0
1979-03-06 13:23:46.290 ,6,1,29.,12.0,2.,12.0,0.,12.0,0.,12.0